Regional Weather Roundup
Issued by NWS Green Bay, WI

Home | Current Version | Previous Version | Graphics & Text | Print | Product List | Glossary Off
Versions: 1 2 3 4 5 6 7 8 9 10 11 12 13 14 15 16 17 18 19 20 21 22 23 24 25 26 27 28 29 30 31 32 33 34 35 36 37 38 39 40 41 42 43 44 45 46 47 48 49 50

000
ASUS43 KGRB 271710
RWRGRB

NORTH-CENTRAL AND NORTHEAST WISCONSIN REGIONAL WEATHER ROUNDUP
NATIONAL WEATHER SERVICE GREEN BAY WI
1200 PM CDT WED AUG 27 2014

WIZ005-009-010>012-018-019-271800-
NORTH CENTRAL WISCONSIN

CITY           SKY/WX    TMP DP  RH WIND       PRES   REMARKS
IRONWOOD       NOT AVBL
MANITOWISH WTR PTSUNNY   63  49  59 SW5       30.22S
ARBOR VITAE    MOSUNNY   64  48  57 N3        30.22S
EAGLE RIVER    MOSUNNY   62  47  57 W8        30.22S
LAND O LAKES   PTSUNNY   63  47  55 CALM      30.22S
RHINELANDER    MOSUNNY   65  49  56 VRB3      30.22F
PHILLIPS       MOSUNNY   63  49  59 NW8       30.23S
ANTIGO         CLOUDY    63  52  67 CALM      30.22S
TOMAHAWK       MOSUNNY   65  48  54 W5        30.23S
MERRILL        PTSUNNY   66  53  63 W3        30.22S
$$

WIZ013-073-271800-
NORTHEAST WISCONSIN

CITY           SKY/WX    TMP DP  RH WIND       PRES   REMARKS
IRON MOUNTAIN  PTSUNNY   64  48  56 N6        30.19S
MARINETTE      PTSUNNY   64  52  63 CALM      30.19R
OCONTO         CLOUDY    67  56  68 MISG      30.19S
$$

WIZ017-030-035>037-045-271800-
CENTRAL WISCONSIN

CITY           SKY/WX    TMP DP  RH WIND       PRES   REMARKS
MEDFORD        SUNNY     65  50  60 NW6       30.24R
WAUSAU         CLOUDY    66  54  65 VRB5      30.21R
MOSINEE        CLOUDY    66  55  68 CALM      30.23S
MARSHFIELD     CLOUDY    69  54  58 VRB6      30.22S
WISC RAPIDS    SUNNY     72  54  53 CALM      30.22S
STEVENS POINT  MOSUNNY   67  52  57 SW3       30.22R
WAUPACA        MOSUNNY   72  53  52 CALM      30.21R
SHAWANO        PTSUNNY   69  53  57 NW6       30.20S
CLINTONVILLE   MOSUNNY   70  50  49 CALM      30.20S
$$

WIZ038-039-048-051-271800-
FOX VALLEY

CITY           SKY/WX    TMP DP  RH WIND       PRES   REMARKS
NWS GREEN BAY  MOSUNNY   71  55  56 MISG      30.19F
APPLETON       PTSUNNY   70  48  46 CALM      30.19F
OSHKOSH        MOSUNNY   70  55  59 CALM      30.19F
FOND DU LAC    MOSUNNY   73  56  54 CALM      30.19F
$$

WIZ022-050-052-271800-
EAST CENTRAL WISCONSIN

CITY           SKY/WX    TMP DP  RH WIND       PRES   REMARKS
STURGEON BAY   MOSUNNY   66  52  59 N6        30.20S
MANITOWOC      SUNNY     68  57  68 SE6       30.18F
SHEBOYGAN      SUNNY     70  57  63 VRB6      30.20R
$$

LMZ563-521-522-541>543-271800-
LAKESHORE

STATION/POSITION TIME  TEMP    WIND        PRES    VSBY  WAVE
                       AIR SEA DIR/SP/G                  HT/PER
                 (UTC) (F)     (DEG/KT/KT) (MB)    (MI)  (FT/S)
SHEBOYGAN LKSHOR 1700   65 67   40/  5/  6 1022.7R
KEWAUNEE LKSHORE 1700   66     130/  4/  6 1021.3F
NORTHPORT PIER   1700   63     340/  6/  7 1022.4S
N MID LAKE BUOY  1700   61 66  330/  2/  4 1022.4F         1
S GREEN BAY BUOY 1700   67        CALM     1023.3F
SISTER BAY LKSHO 1700   69     340/  6/  7   N/A
CHAMBERS ISLAND  1700   65      20/  3/  4 1022.7S
MENOMINEE LKSHOR 1700   65      90/  5/  6 1022.9S
$$



USA.gov is the U.S. government's official web portal to all federal, state and local government web resources and services.